Location: Plainartige
(45.6866°N, 1.7993°E)
Time: 17:38:38
(UTC+00:00)

POLYITAN 1 - Pass Details

Date: 01 July 2022
Orbit: 586 x 605 km, 98.0° (Epoch: 18 August)

Event Time Altitude Azimuth Distance (km) Brightness Sun altitude
Rises 02:52:21 0° 359° (N) 2,860 ? -10.5°
Reaches altitude 10° 02:54:58 10° 343° (NNW) 1,955 ? -10.2°
Maximum altitude 02:58:04 20° 296° (WNW) 1,413 ? -9.8°
Drops below altitude 10° 03:01:09 10° 249° (WSW) 1,952 ? -9.5°
Enters shadow 03:01:13 10° 249° (WSW) 1,972 ? -9.5°
